Time,TemperatureF,DewpointF,PressureIn,WindDirection,WindDirectionDegrees,WindSpeedMPH,WindSpeedGustMPH,Humidity,HourlyPrecipIn,Conditions,Clouds,dailyrainin,SoftwareType,DateUTC
2013-06-22 10:02:00,68.0,63.0,-100.00,SE,145,21.0,28.0,83,0.00,,,-99.99,,2013-06-22 15:02:00,
2013-06-22 10:12:00,68.0,63.0,-100.00,SE,140,21.0,30.0,83,0.00,,,-99.99,,2013-06-22 15:12:00,
2013-06-22 10:22:00,68.0,63.0,-100.00,SE,140,24.0,32.0,83,0.00,,,-99.99,,2013-06-22 15:22:00,
2013-06-22 10:34:00,68.0,62.0,-100.00,SE,125,22.0,34.0,82,0.00,,,-99.99,,2013-06-22 15:34:00,
2013-06-22 10:43:00,68.0,63.0,-100.00,ESE,105,12.0,32.0,82,0.00,,,-99.99,,2013-06-22 15:43:00,
2013-06-22 10:53:00,69.0,62.0,-100.00,East,100,12.0,24.0,77,0.00,,,-99.99,,2013-06-22 15:53:00,
2013-06-22 11:02:00,69.0,62.0,-100.00,East,100,11.0,26.0,78,0.00,,,-99.99,,2013-06-22 16:02:00,
2013-06-22 11:12:00,70.0,63.0,-100.00,SE,125,10.0,25.0,78,0.00,,,-99.99,,2013-06-22 16:12:00,
2013-06-22 11:22:00,71.0,64.0,-100.00,SE,130,7.0,21.0,78,0.00,,,-99.99,,2013-06-22 16:22:00,
2013-06-22 11:34:00,72.0,64.0,-100.00,East,95,4.0,15.0,76,0.00,,,-99.99,,2013-06-22 16:34:00,
2013-06-22 11:43:00,73.0,65.0,-100.00,ESE,115,6.0,10.0,74,0.00,,,-99.99,,2013-06-22 16:43:00,
2013-06-22 11:52:00,74.0,65.0,-100.00,ESE,115,7.0,10.0,73,0.00,,,-99.99,,2013-06-22 16:52:00,
2013-06-22 12:02:00,75.0,65.0,-100.00,SE,130,4.0,9.0,71,0.00,,,-99.99,,2013-06-22 17:02:00,
2013-06-22 12:11:00,76.0,65.0,-100.00,SE,125,4.0,7.0,68,0.00,,,-99.99,,2013-06-22 17:11:00,
2013-06-22 12:22:00,77.0,65.0,-100.00,ESE,105,3.0,4.0,65,0.00,,,-99.99,,2013-06-22 17:22:00,
2013-06-22 12:34:00,77.0,65.0,-100.00,East,85,3.0,6.0,66,0.00,,,-99.99,,2013-06-22 17:34:00,
2013-06-22 12:43:00,78.0,65.0,-100.00,ENE,60,2.0,4.0,65,0.00,,,-99.99,,2013-06-22 17:43:00,
2013-06-22 12:52:00,79.0,65.0,-100.00,SE,125,0.0,3.0,63,0.00,,,-99.99,,2013-06-22 17:52:00,
2013-06-22 14:11:00,83.0,63.0,-100.00,SSW,210,11.0,14.0,50,0.00,,,-99.99,,2013-06-22 19:11:00,
2013-06-22 14:22:00,82.0,63.0,-100.00,South,190,11.0,14.0,51,0.00,,,-99.99,,2013-06-22 19:22:00,
2013-06-22 14:33:00,80.0,61.0,-100.00,SW,220,11.0,15.0,52,0.00,,,-99.99,,2013-06-22 19:33:00,
2013-06-22 14:43:00,80.0,62.0,-100.00,SW,215,7.0,12.0,55,0.00,,,-99.99,,2013-06-22 19:43:00,
2013-06-22 14:52:00,80.0,62.0,-100.00,SW,215,7.0,12.0,55,0.00,,,-99.99,,2013-06-22 19:52:00,
2013-06-22 15:02:00,78.0,62.0,-100.00,WSW,240,9.0,14.0,57,0.00,,,-99.99,,2013-06-22 20:02:00,
2013-06-22 15:11:00,77.0,62.0,-100.00,WSW,240,3.0,12.0,59,0.00,,,-99.99,,2013-06-22 20:11:00,
2013-06-22 15:22:00,77.0,63.0,-100.00,SW,220,2.0,4.0,61,0.00,,,-99.99,,2013-06-22 20:22:00,
2013-06-22 15:33:00,77.0,63.0,-100.00,SW,235,6.0,7.0,63,0.00,,,-99.99,,2013-06-22 20:33:00,
2013-06-22 15:43:00,76.0,63.0,-100.00,WSW,240,5.0,9.0,65,0.00,,,-99.99,,2013-06-22 20:43:00,
2013-06-22 15:53:00,75.0,64.0,-100.00,SW,225,5.0,7.0,67,0.00,,,-99.99,,2013-06-22 20:53:00,
2013-06-22 16:01:00,75.0,64.0,-100.00,SE,140,1.0,6.0,69,0.00,,,-99.99,,2013-06-22 21:01:00,
2013-06-22 16:11:00,75.0,65.0,-100.00,SW,235,2.0,3.0,72,0.00,,,-99.99,,2013-06-22 21:11:00,
2013-06-22 16:22:00,75.0,66.0,-100.00,SW,225,3.0,3.0,74,0.00,,,-99.99,,2013-06-22 21:22:00,
2013-06-22 16:34:00,74.0,67.0,-100.00,West,280,8.0,9.0,76,0.00,,,-99.99,,2013-06-22 21:34:00,
2013-06-22 16:43:00,74.0,66.0,-100.00,West,260,0.0,12.0,74,0.00,,,-99.99,,2013-06-22 21:43:00,
2013-06-22 16:53:00,75.0,66.0,-100.00,NNW,335,2.0,3.0,73,0.00,,,-99.99,,2013-06-22 21:53:00,
2013-06-22 17:02:00,75.0,66.0,-100.00,North,355,2.0,5.0,73,0.00,,,-99.99,,2013-06-22 22:02:00,
2013-06-22 17:12:00,76.0,66.0,-100.00,NNW,335,5.0,8.0,72,0.00,,,-99.99,,2013-06-22 22:12:00,
2013-06-22 17:23:00,76.0,66.0,-100.00,NW,325,6.0,7.0,72,0.00,,,-99.99,,2013-06-22 22:23:00,
2013-06-22 17:33:00,76.0,66.0,-100.00,NNW,340,4.0,7.0,72,0.00,,,-99.99,,2013-06-22 22:33:00,
2013-06-22 17:43:00,75.0,66.0,-100.00,NNW,335,5.0,8.0,72,0.00,,,-99.99,,2013-06-22 22:43:00,
2013-06-22 17:52:00,75.0,66.0,-100.00,NNW,330,4.0,7.0,73,0.00,,,-99.99,,2013-06-22 22:52:00,
2013-06-22 18:01:00,75.0,66.0,-100.00,North,355,4.0,7.0,73,0.00,,,-99.99,,2013-06-22 23:01:00,
2013-06-22 18:11:00,75.0,66.0,-100.00,West,280,2.0,6.0,74,0.00,,,-99.99,,2013-06-22 23:11:00,
2013-06-22 18:22:00,75.0,67.0,-100.00,NNE,20,1.0,3.0,75,0.00,,,-99.99,,2013-06-22 23:22:00,
2013-06-22 18:34:00,75.0,67.0,-100.00,North,0,1.0,4.0,76,0.00,,,-99.99,,2013-06-22 23:34:00,
2013-06-22 18:43:00,75.0,67.0,-100.00,NE,50,2.0,5.0,75,0.00,,,-99.99,,2013-06-22 23:43:00,
2013-06-22 18:52:00,75.0,67.0,-100.00,NNE,15,1.0,3.0,74,0.00,,,-99.99,,2013-06-22 23:52:00,
2013-06-22 19:01:00,76.0,67.0,-100.00,NE,45,1.0,4.0,74,0.00,,,-99.99,,2013-06-23 00:01:00,
2013-06-22 19:11:00,76.0,67.0,-100.00,NE,40,1.0,4.0,74,0.00,,,-99.99,,2013-06-23 00:11:00,
2013-06-22 19:22:00,76.0,67.0,-100.00,NE,40,2.0,4.0,74,0.00,,,-99.99,,2013-06-23 00:22:00,
2013-06-22 19:33:00,76.0,67.0,-100.00,NE,55,2.0,6.0,72,0.00,,,-99.99,,2013-06-23 00:33:00,
2013-06-22 19:42:00,76.0,67.0,-100.00,ENE,60,4.0,6.0,71,0.00,,,-99.99,,2013-06-23 00:42:00,
2013-06-22 19:53:00,76.0,66.0,-100.00,NE,50,4.0,6.0,71,0.00,,,-99.99,,2013-06-23 00:53:00,
2013-06-22 20:01:00,76.0,66.0,-100.00,NNE,30,1.0,6.0,71,0.00,,,-99.99,,2013-06-23 01:01:00,
2013-06-22 20:11:00,76.0,66.0,-100.00,ENE,60,4.0,9.0,71,0.00,,,-99.99,,2013-06-23 01:11:00,
2013-06-22 20:21:00,76.0,65.0,-100.00,ENE,65,4.0,7.0,70,0.00,,,-99.99,,2013-06-23 01:21:00,
2013-06-22 20:32:00,75.0,65.0,-100.00,East,80,3.0,7.0,70,0.00,,,-99.99,,2013-06-23 01:32:00,
2013-06-22 20:42:00,75.0,65.0,-100.00,East,90,4.0,6.0,71,0.00,,,-99.99,,2013-06-23 01:42:00,
2013-06-22 20:52:00,74.0,65.0,-100.00,NE,40,5.0,7.0,71,0.00,,,-99.99,,2013-06-23 01:52:00,
2013-06-22 21:01:00,75.0,63.0,-100.00,ENE,75,2.0,10.0,67,0.00,,,-99.99,,2013-06-23 02:01:00,
2013-06-22 21:11:00,74.0,63.0,-100.00,East,80,4.0,6.0,68,0.00,,,-99.99,,2013-06-23 02:11:00,
2013-06-22 21:21:00,74.0,63.0,-100.00,East,85,4.0,7.0,68,0.00,,,-99.99,,2013-06-23 02:21:00,
2013-06-22 21:31:00,74.0,64.0,-100.00,ESE,105,4.0,7.0,70,0.00,,,-99.99,,2013-06-23 02:31:00,
2013-06-22 21:41:00,73.0,65.0,-100.00,East,95,4.0,7.0,73,0.00,,,-99.99,,2013-06-23 02:41:00,
2013-06-22 21:52:00,73.0,65.0,-100.00,ESE,115,4.0,6.0,76,0.00,,,-99.99,,2013-06-23 02:52:00,
2013-06-22 22:01:00,72.0,65.0,-100.00,ESE,120,3.0,7.0,78,0.00,,,-99.99,,2013-06-23 03:01:00,
2013-06-22 22:11:00,72.0,65.0,-100.00,SE,125,4.0,6.0,78,0.00,,,-99.99,,2013-06-23 03:11:00,
2013-06-22 22:21:00,72.0,65.0,-100.00,SE,125,4.0,6.0,78,0.00,,,-99.99,,2013-06-23 03:21:00,
2013-06-22 22:31:00,72.0,65.0,-100.00,East,90,4.0,5.0,76,0.00,,,-99.99,,2013-06-23 03:31:00,
2013-06-22 22:41:00,73.0,65.0,-100.00,East,80,5.0,7.0,75,0.00,,,-99.99,,2013-06-23 03:41:00,
2013-06-22 22:51:00,72.0,65.0,-100.00,East,90,4.0,9.0,76,0.00,,,-99.99,,2013-06-23 03:51:00,
2013-06-22 23:01:00,72.0,65.0,-100.00,East,90,6.0,7.0,78,0.00,,,-99.99,,2013-06-23 04:01:00,
2013-06-22 23:11:00,71.0,65.0,-100.00,East,95,5.0,7.0,80,0.00,,,-99.99,,2013-06-23 04:11:00,
2013-06-22 23:21:00,71.0,65.0,-100.00,East,100,4.0,8.0,81,0.00,,,-99.99,,2013-06-23 04:21:00,
2013-06-22 23:31:00,71.0,65.0,-100.00,East,95,6.0,9.0,82,0.00,,,-99.99,,2013-06-23 04:31:00,
2013-06-22 23:42:00,71.0,66.0,-100.00,ESE,120,7.0,9.0,82,0.00,,,-99.99,,2013-06-23 04:42:00,
2013-06-22 23:52:00,72.0,66.0,-100.00,East,95,8.0,12.0,80,0.00,,,-99.99,,2013-06-23 04:52:00,